Flag for Jamaica Weather past 2 weeks in Montego Bay, Jamaica

Now
82 °F

Passing clouds.


Feels Like: 91 °F
Forecast: 77 / 87 °F
Wind: 5 mph from East

Location: Montego Bay / Sangster

Current Time: Sep 18, 2014 at 7:33:18 PM

Latest Report: Sep 18, 2014 at 7:00 PM


Visibility: N/A

Pressure: 29.89 "Hg

Humidity: 84%

Dew point: 77 °F

Location of Montego BayLocation

Historic Weather in Montego Bay — Graph

°F

Montego Bay temperature yesterday

Maximum temperature yesterday: 88 °F (at 1:00 PM)
Minimum temperature yesterday: 77 °F (at 3:00 AM)
Average temperature yesterday: 81 °F

Past Weeks' High & Low Weather Summary

 TemperatureHumidityPressure
High90 °F (Sep 7, 12:00 PM)100% (Sep 7, 7:00 PM)30.01 "Hg (Sep 7, 7:00 PM)
Low73 °F (Sep 7, 7:00 PM)66% (Sep 11, 5:00 PM)29.83 "Hg (Sep 6, 4:00 PM)
Average82 °F83%29.93 "Hg
* Reported Sep 3 6:00 PM — Sep 18 6:00 PM, Montego Bay, Weather by CustomWeather, © 2014

Note: Actual official high and low records may vary slightly from our data, if they occured in-between our weather recording intervals... More about our weather records

Advertising

Montego Bay weather history for previous 24 hours

 ConditionsComfort  
Time TempWeatherWind HumidityBarometerVisibility
6:00 PM
Sep 18
84 °FPassing clouds.7 mph74%29.86 "HgN/A
5:00 PM86 °FPassing clouds.6 mph70%29.89 "HgN/A
4:00 PM84 °FPartly sunny.9 mph79%29.89 "HgN/A
3:00 PM88 °FPassing clouds.9 mph70%29.86 "HgN/A
2:00 PM86 °FPassing clouds.9 mph75%29.89 "HgN/A
1:00 PM86 °FPassing clouds.9 mph79%29.92 "HgN/A
12:00 PM86 °FPassing clouds.8 mph79%29.95 "HgN/A
11:00 AM86 °FPassing clouds.7 mph79%29.98 "HgN/A
10:00 AM86 °FPassing clouds.6 mph79%29.98 "HgN/A
9:00 AM84 °FPassing clouds.3 mph79%29.95 "HgN/A
8:00 AM84 °FPassing clouds.2 mph79%29.95 "HgN/A
7:00 AM81 °FPassing clouds.2 mph79%29.92 "HgN/A
6:00 AM79 °FPassing clouds.1 mph79%29.92 "HgN/A
5:00 AM79 °FPassing clouds.3 mph79%29.89 "HgN/A
4:00 AM79 °FPassing clouds.3 mph79%29.89 "HgN/A
3:00 AM81 °FPassing clouds.3 mph74%29.89 "HgN/A
2:00 AM79 °FPassing clouds.2 mph79%29.89 "HgN/A
1:00 AM79 °FPassing clouds.3 mph74%29.92 "HgN/A
12:00 AM79 °FPassing clouds.1 mph70%29.92 "HgN/A
11:00 PM
Sep 17
79 °FPassing clouds.2 mph70%29.95 "HgN/A
10:00 PM81 °FPassing clouds.2 mph66%29.98 "HgN/A
9:00 PM81 °FPassing clouds.2 mph70%29.95 "HgN/A
8:00 PM81 °FThundershowers. Passing clouds.1 mph70%29.95 "HgN/A
7:00 PM79 °FThundershowers. Passing clouds.2 mph74%29.92 "HgN/A
Weather by CustomWeather, © 2014

See weather overviewHow to use our weather pages